Simultaneous Nadir Overpasses (SNOs) Predictions

Prediction of SNOs between GOES-16 and LANDSAT-8 Satellite Orbit:

Table of predicted SNOs for the next 14.0 days since TLE Epoch: 3/30/2024
Index Date Time (GOES-16) GOES-16 Lat,Lon LANDSAT-8 Lat,Lon Distance(km) Time Diff (sec)
1 03/31/2024 03:03:07 -0.04, -75.21 0.40, -73.18 230.23 80
2 03/31/2024 15:24:22 0.04, -75.23 0.73, -78.34 354.06 80
3 04/02/2024 15:12:11 0.03, -75.23 0.08, -75.39 17.86 80
4 04/04/2024 15:02:40 0.03, -75.25 -0.59, -72.44 319.28 80
5 04/05/2024 03:24:04 -0.03, -75.23 -0.51, -77.64 272.84 80
6 04/07/2024 03:09:11 -0.02, -75.25 0.08, -74.67 65.61 80
7 04/09/2024 02:56:59 -0.03, -75.28 0.76, -71.72 404.87 80
8 04/09/2024 15:18:14 0.03, -75.30 0.34, -76.88 178.68 80
9 04/11/2024 15:08:40 0.02, -75.34 -0.25, -73.91 161.24 80
10 04/12/2024 03:30:04 -0.02, -75.33 -0.82, -79.11 430.01 80
